OneWeb SL0445

operational
NORAD ID: 51639 Int'l Des: 2022-012 Owner: ONEWEBN Country: UK Constellation: oneweb
LEOCIRCULARPOLARONEWEB_TYPE

About OneWeb SL0445

Description loading...

Live Position

Loading 3D Globe...

Upcoming Passes

Altitude History

Altitude vs Time

uPlot chart will show altitude changes over time

Two-Line Element Set

1 51639U 22012T 26033.49929057 -.00000669 00000-0 -19539-2 0 9992
2 51639 87.8771 63.0870 0001940 101.1799 258.9547 13.10376046191709
Epoch: Feb 2, 2026 • Age: 20 hours

Current Status

Altitude 1251.6 km
Velocity 7.23 km/s
Sub-Earth Point -81.91°S, 158.54°E
Launch Date Feb 10, 2022
Age 3.9 years
Type internet

Technical Details

Classification Payload
Mass 148.00 kg
Dry Mass 140.00 kg
Total Mass 148.00 kg
Length 1.30 m
Diameter 1.00 m
Span 5.00 m
Shape Trapezoid+2 pan
Manufacturer ONEWUS
Bus Type ARROW
Phase Status In Orbit
Owner/State ONEWEBN/UK

Large Constellations

Loading constellations...